User: anonymous   Login
Location: Unspecified
(0.0000°N, 0.0000°E)
Time: 20:45:30
(UTC+00:00)
Language:

FUSE - Orbit

View from above orbital plane
View from above orbital plane
View from above satellite
View from above satellite

Ground track
Ground track

The orbit data is extracted from the following two-line orbital elements,

1 25791U 99035A   22267.96602922  .00000371  00000-0  55896-4 0  9993
2 25791  24.9840  97.3179 0010404 141.2051 218.9204 14.42950303227044
Epoch (UTC): 24 September 2022 23:11:04
Eccentricity: 0.0010404
inclination: 24.9840°
perigee height: 741 km
apogee height: 756 km
right ascension of ascending node: 97.3179°
argument of perigee: 141.2051°
revolutions per day: 14.42950303
mean anomaly at epoch: 218.9204°
orbit number at epoch: 22704

The dashed part of the orbit path shows where the satellite is in the earth's shadow,  

DLR